Regional Weather Roundup
Issued by NWS

Home | Current Version | Previous Version | Text Only | Print | Product List | Glossary Off
Versions: 1 2 3 4 5 6 7 8 9 10 11 12 13 14 15 16 17 18 19 20 21 22 23 24 25 26 27 28 29 30 31 32 33 34 35 36 37 38 39 40 41 42 43 44 45 46 47 48 49 50

107
ASUS43 KIND 290859
RWRIN

WEATHER ROUNDUP FOR INDIANA
NATIONAL WEATHER SERVICE INDIANAPOLIS IN
500 AM EDT FRI APR 29 2016

NOTE: "FAIR" INDICATES FEW OR NO CLOUDS BELOW 12,000 FEET WITH NO
SIGNIFICANT WEATHER AND/OR OBSTRUCTIONS TO VISIBILITY.

* - STATION DOES NOT REPORT WEATHER SUCH AS PRECIPITATION OR FOG.

+ - STATION NOT QUALITY CONTROLLED BY THE NATIONAL WEATHER SERVICE.
    USE DATA WITH CAUTION...ESPECIALLY DEWPOINT AND RELATIVE
    HUMIDITY OBSERVATIONS.

INZ001>003-010>013-019-020-291000-
NORTHWEST INDIANA

CITY           SKY/WX    TMP DP  RH WIND       PRES   REMARKS
RENSSELAER +   FOG       46  46 100 NW6       30.00R VSB 1/4

$$

LMZ046-743>745-291000-
SOUTHERN LAKE MICHIGAN

STATION/POSITION TIME  TEMP    WIND        PRES    WAVE
                       AIR SEA DIR/SP/G            HT
                 (UTC) (F)     (DEG/KT/KT) (MB)    (FT)
BURNS HARBOR     0800   44     310/  6/  8 1016.3F
MICHIGAN CITY    0800   43     230/ 12/ 13   N/A

$$

INZ004-005-014>016-021>024-291000-
NORTH CENTRAL INDIANA

CITY           SKY/WX    TMP DP  RH WIND       PRES   REMARKS
GOSHEN         CLOUDY    46  39  76 E5        30.00R
SOUTH BEND     CLOUDY    46  37  71 SE8       30.00S

$$

INZ006>009-017-018-025>027-291000-
NORTHEAST INDIANA

CITY           SKY/WX    TMP DP  RH WIND       PRES   REMARKS
ANGOLA *+      CLOUDY    45  30  57 E5        30.00S
FORT WAYNE     CLOUDY    46  40  79 E5        30.01S

$$

INZ028-029-035-036-043>045-051>053-291000-
WEST CENTRAL INDIANA

CITY           SKY/WX    TMP DP  RH WIND       PRES   REMARKS
CRAWFORDSVL +  CLEAR     47  47 100 W3        30.01R
GREENCASTLE +  CLEAR     48  48 100 CALM      30.02R
LAFAYETTE      PTCLDY    48  47  96 W3        30.00R FOG
TERRE HAUTE    CLEAR     49  46  90 CALM      30.02R

$$

INZ030>032-037>040-046>048-054>057-064-065-291000-
CENTRAL INDIANA

CITY           SKY/WX    TMP DP  RH WIND       PRES   REMARKS
INDIANAPOLIS   PTCLDY    50  46  86 W9        29.99R
-EAGLE CREEK   CLEAR     52  48  86 W9        29.99R
KOKOMO *+      CLOUDY    48  43  81 E6        29.98S
SHELBYVILLE    CLEAR     52  48  86 W6        29.98R

$$

INZ033-034-041-042-049-050-058-059-291000-
EAST CENTRAL INDIANA

CITY           SKY/WX    TMP DP  RH WIND       PRES   REMARKS
MUNCIE         CLOUDY    48  45  89 E6        29.98S FOG

$$

INZ060-061-067>069-081>083-085>088-291000-
SOUTHWEST INDIANA

CITY           SKY/WX    TMP DP  RH WIND       PRES   REMARKS
EVANSVILLE     MOCLDY    56  50  80 CALM      30.04R
HUNTINGBURG *+ CLOUDY    54  48  82 N3        30.03R

$$

INZ062-063-066-070>080-084-089>092-291000-
SOUTH CENTRAL AND SOUTHEAST INDIANA

CITY           SKY/WX    TMP DP  RH WIND       PRES   REMARKS
BLOOMINGTON    CLEAR     50  46  86 CALM      30.01R
MADISON *+     CLEAR     54  52  94 W3        30.02R
SEYMOUR +      CLEAR     54  48  82 CALM      30.01R

$$





USA.gov is the U.S. government's official web portal to all federal, state and local government web resources and services.